, MO

(GMT )
Kansas City

Weather History for KMKC - November, 2012

Change the Weather History Date:

Monday, November 26, 2012

  Actual Average Record
Temperature  
Mean Temperature 34 °F -  
Max Temperature 42 °F 49 °F 70 °F (1998)
Min Temperature 24 °F 33 °F 15 °F (1996)
Degree Days  
Heating Degree Days 32    
Moisture  
Dew Point 23 °F    
Average Humidity 66    
Maximum Humidity 76    
Minimum Humidity 45    
Precipitation  
Precipitation 0.00 in - - ()
Sea Level Pressure  
Sea Level Pressure 30.30 in    
Wind  
Wind Speed 9 mph (NNE)    
Max Wind Speed 20 mph    
Max Gust Speed 28 mph    
Visibility 10 miles    
Events      
Averages and records for this station are not official NWS values.
T = Trace of Precipitation, MM = Missing Value Source: NWS Daily Summary

Daily Weather History Graph

Daily Weather History Graph

Search for Another Location

Airport or City:

Trip Planner

Search our weather history database for the weather conditions in past years. The results will help you decide how hot, cold, wet, or windy it might be!

Date:

Astronomy

Nov. 26, 2012 Rise Set
Actual Time 7:14 AM CST 4:57 PM CST
Civil Twilight 6:44 AM CST 5:26 PM CST
Nautical Twilight 6:11 AM CST 5:59 PM CST
Astronomical Twilight 5:39 AM CST 6:31 PM CST
Moon 3:49 PM CST (11/26) 5:25 AM CST (11/26)
Length of Visible Light 10h 42m
Length of Day
9h 43m
Waxing Gibbous, 97% of the Moon is Illuminated
Nov 26
Waxing Gibbous
Nov 28
Full
Dec 6
Last Quarter
Dec 13
New
Dec 19
First Quarter

Hourly Weather History & Observations

Time (CST) Temp. Windchill Dew Point Humidity Pressure Visibility Wind Dir Wind Speed Gust Speed Precip Events Conditions
12:54 AM 33.1 °F 27.7 °F 25.0 °F 72% 30.08 in 10.0 mi NE 5.8 mph - N/A   Clear
1:54 AM 33.1 °F 26.9 °F 26.1 °F 75% 30.09 in 10.0 mi NNE 6.9 mph - N/A   Clear
2:54 AM 32.0 °F 24.8 °F 25.0 °F 75% 30.12 in 10.0 mi NE 8.1 mph - N/A   Clear
3:54 AM 32.0 °F 24.2 °F 24.1 °F 73% 30.12 in 10.0 mi NE 9.2 mph - N/A   Clear
4:54 AM 32.0 °F 24.8 °F 24.1 °F 73% 30.15 in 10.0 mi NE 8.1 mph - N/A   Clear
5:54 AM 30.9 °F 22.2 °F 24.1 °F 76% 30.16 in 10.0 mi ENE 10.4 mph - N/A   Clear
6:54 AM 30.9 °F 22.8 °F 24.1 °F 76% 30.18 in 10.0 mi ENE 9.2 mph - N/A   Clear
7:54 AM 32.0 °F 24.2 °F 24.1 °F 73% 30.21 in 9.0 mi NE 9.2 mph - N/A   Clear
8:54 AM 35.1 °F 25.9 °F 24.1 °F 64% 30.25 in 10.0 mi NE 13.8 mph - N/A   Clear
9:54 AM 39.9 °F 31.8 °F 25.0 °F 55% 30.28 in 10.0 mi NE 15.0 mph - N/A   Clear
10:54 AM 41.0 °F 33.9 °F 24.1 °F 51% 30.31 in 10.0 mi NNE 12.7 mph - N/A   Clear
11:54 AM 41.0 °F 32.8 °F 23.0 °F 49% 30.32 in 10.0 mi North 16.1 mph - N/A   Clear
12:54 PM 42.1 °F 34.5 °F 23.0 °F 47% 30.32 in 10.0 mi North 15.0 mph 23.0 mph N/A   Clear
1:54 PM 42.1 °F 33.3 °F 21.9 °F 45% 30.33 in 10.0 mi NNE 19.6 mph 27.6 mph N/A   Clear
2:54 PM 39.0 °F 31.0 °F 25.0 °F 57% 30.35 in 10.0 mi North 13.8 mph 19.6 mph N/A   Overcast
3:04 PM 39.2 °F 30.8 °F 26.6 °F 61% 30.33 in 10.0 mi NNE 15.0 mph - N/A   Overcast
3:54 PM 35.1 °F 26.4 °F 27.0 °F 72% 30.37 in 10.0 mi NNE 12.7 mph - N/A   Overcast
4:20 PM 35.6 °F 28.6 °F 26.6 °F 70% 30.35 in 10.0 mi NNE 9.2 mph - N/A   Mostly Cloudy
4:54 PM 34.0 °F 27.2 °F 26.1 °F 73% 30.38 in 10.0 mi NNE 8.1 mph - N/A   Clear
5:54 PM 33.1 °F 26.9 °F 23.0 °F 66% 30.40 in 10.0 mi North 6.9 mph - N/A   Clear
6:54 PM 32.0 °F 26.4 °F 23.0 °F 69% 30.43 in 10.0 mi North 5.8 mph - N/A   Clear
7:54 PM 30.0 °F 24.1 °F 21.0 °F 69% 30.44 in 10.0 mi North 5.8 mph - N/A   Clear
8:54 PM 28.9 °F 21.9 °F 19.0 °F 67% 30.47 in 10.0 mi NNE 6.9 mph - N/A   Clear
9:54 PM 28.0 °F 20.8 °F 18.0 °F 66% 30.48 in 10.0 mi North 6.9 mph - N/A   Clear
10:54 PM 25.0 °F 16.3 °F 16.0 °F 69% 30.48 in 10.0 mi North 8.1 mph - N/A   Clear
11:54 PM 24.1 °F 15.2 °F 12.9 °F 62% 30.49 in 10.0 mi NNE 8.1 mph - N/A   Clear